Location: Im Fang
(46.6019°N, 7.2397°E)
Time: 17:17:24
(UTC+00:00)

Envisat - Pass Details

Date: 14 March 2021
Orbit: 764 x 766 km, 98.1° (Epoch: 17 April)

Event Time Altitude Azimuth Distance (km) Brightness Sun altitude
Rises 04:48:58 0° 18° (NNE) 3,244 6.6 -10.6°
Reaches altitude 10° 04:51:22 10° 24° (NNE) 2,312 5.9 -10.2°
Maximum altitude 04:56:18 50° 99° (E) 975 4.1 -9.3°
Drops below altitude 10° 05:01:12 10° 175° (S) 2,294 5.5 -8.5°
Sets 05:03:34 0° 180° (S) 3,216 6.2 -8.1°
